If you wish to contribute or participate in the discussions about articles you are invited to join SKYbrary as a registered user

 Actions

Tallinn/Ulemiste

From SKYbrary Wiki

EETN
Airport
ICAO: EETN
Summary
Name Tallinn/Ulemiste
Region Europe
Territory
Location Tallinn
Serving
Coordinates 59° 24' 59.4763", 24° 47' 57.4922"
Runways
Designator Length Width Surface ROPS
8/26 3070 m10,072.178 ft 45 m147.638 ft ASP yes/yes


METAR
Observation EETN 251950Z 21005KT 9999 OVC031 06/05 Q0996 NOSIG
Station Tallinn
Date/Time 25 April 2018 19:50:00
Wind direction 210°
Wind speed 05 kts
Lowest cloud amount overcast
Temperature 6°C
Dew point 5°C
Humidity 93%
QNH 996 hPa
Weather condition n/a

Tallinn Airport

ICAO: EETN IATA: TLL

Description

International airport serving capital city of Estonia.

Climatology

Humid Continental climate (Köppen climate classification Dfb) - Variable weather patterns and a large seasonal temperature variance. Summers are often warm and humid with frequent thunderstorms and winters can be very cold with frequent snowfall and persistent snow cover.

Maps

Terrain

Loading map...

Airport Layout

Loading map...


Accidents & Serious Incidents at or in vicinity of EETN

None on SKYbrary